| time (UTC) | temp F | wind direction | speed knots | gust knots | rain 1hr in | rain 24hr in | rain mn in | humidity % | barometer mb |
| 20260905180017 | 78 | 23 | 1.7 | 6.1 | 0.00 | 0.00 | 0.00 | 48 | 1010.7 |
| 20260905173017 | 77 | 23 | 1.7 | 4.3 | 0.00 | 0.00 | 0.00 | 51 | 1010.9 |
| 20260905170017 | 75 | 45 | 1.7 | 5.2 | 0.00 | 0.00 | 0.00 | 58 | 1011.1 |
| 20260905163017 | 74 | 23 | 1.7 | 7.0 | 0.00 | 0.00 | 0.00 | 57 | 1011.1 |
| 20260905160037 | 74 | 23 | 1.7 | 6.1 | 0.00 | 0.00 | 0.00 | 59 | 1011.1 |
| 20260905153036 | 73 | 0 | 1.7 | 5.2 | 0.00 | 0.00 | 0.00 | 61 | 1011.1 |
| 20260905150018 | 72 | 0 | 1.7 | 4.3 | 0.00 | 0.00 | 0.00 | 65 | 1011.3 |
| 20260905143037 | 71 | 23 | 1.7 | 4.3 | 0.00 | 0.00 | 0.00 | 65 | 1011.3 |
| 20260905140016 | 70 | 23 | 0.9 | 3.5 | 0.00 | 0.00 | 0.00 | 70 | 1011.1 |
| 20260905133016 | 68 | 0.0 | 1.7 | 0.00 | 0.00 | 0.00 | 71 | 1011.4 | |
| 20260905130016 | 66 | 0.0 | 1.7 | 0.00 | 0.00 | 0.00 | 76 | 1011.6 | |
| 20260905123017 | 64 | 0.0 | 0.0 | 0.00 | 0.00 | 0.00 | 81 | 1011.7 | |
| 20260905120037 | 61 | 0.0 | 0.9 | 0.00 | 0.00 | 0.00 | 82 | 1011.7 | |
| 20260905113037 | 60 | 0.0 | 0.0 | 0.00 | 0.00 | 0.00 | 83 | 1011.2 | |
| 20260905110039 | 58 | 0.0 | 0.0 | 0.00 | 0.00 | 0.00 | 83 | 1010.8 | |
| 20260905103016 | 58 | 0.0 | 0.0 | 0.00 | 0.00 | 0.00 | 82 | 1010.3 | |
| 20260905100017 | 58 | 0.0 | 0.0 | 0.00 | 0.00 | 0.00 | 82 | 1010.2 | |
| 20260905093016 | 59 | 0.0 | 0.0 | 0.00 | 0.00 | 0.00 | 82 | 1010.2 | |
| 20260905090015 | 59 | 0.0 | 0.0 | 0.00 | 0.00 | 0.00 | 82 | 1010.1 | |
| 20260905083016 | 60 | 0.0 | 0.0 | 0.00 | 0.00 | 0.00 | 81 | 1010.1 | |
| 20260905080037 | 60 | 0.0 | 0.0 | 0.00 | 0.00 | 0.00 | 81 | 1010.2 | |
| 20260905073016 | 61 | 0.0 | 0.0 | 0.00 | 0.01 | 0.00 | 81 | 1010.3 | |
| 20260905070018 | 61 | 0.0 | 0.0 | 0.00 | 0.12 | 0.00 | 79 | 1010.6 | |
| 20260905063021 | 61 | 0.0 | 0.0 | 0.00 | 0.37 | 0.00 | 75 | 1010.7 | |
| 20260905060036 | 62 | 0.0 | 0.0 | 0.00 | 0.41 | 0.00 | 73 | 1010.8 | |
| 20260905053015 | 63 | 0.0 | 0.0 | 0.00 | 0.41 | 0.00 | 71 | 1011.1 | |
| 20260905050036 | 63 | 0.0 | 0.0 | 0.00 | 0.41 | 0.00 | 69 | 1011.2 | |
| 20260905043015 | 64 | 0.0 | 0.0 | 0.00 | 0.41 | 0.00 | 69 | 1011.2 | |
| 20260905040015 | 65 | 0.0 | 0.0 | 0.00 | 0.41 | 0.41 | 67 | 1011.3 | |
| 20260905033016 | 67 | 0.0 | 0.0 | 0.00 | 0.41 | 0.41 | 67 | 1011.2 | |
| 20260905030057 | 68 | 0.0 | 0.0 | 0.00 | 0.41 | 0.41 | 67 | 1011.1 | |
| 20260905023022 | 69 | 0.0 | 0.9 | 0.00 | 0.41 | 0.41 | 63 | 1011.1 | |
| 20260905020016 | 69 | 0.0 | 0.9 | 0.00 | 0.41 | 0.41 | 64 | 1011.1 | |
| 20260905013015 | 70 | 0.0 | 0.9 | 0.00 | 0.41 | 0.41 | 63 | 1011.1 | |
| 20260905010015 | 70 | 0.0 | 0.9 | 0.00 | 0.41 | 0.41 | 62 | 1011.0 | |
| 20260905003035 | 71 | 0.0 | 0.0 | 0.00 | 0.41 | 0.41 | 62 | 1011.0 | |
| 20260905000015 | 72 | 0.0 | 0.0 | 0.00 | 0.41 | 0.41 | 61 | 1010.6 | |
| 20260904233015 | 74 | 0.0 | 0.0 | 0.00 | 0.41 | 0.41 | 59 | 1010.4 | |
| 20260904230015 | 76 | 0.0 | 0.0 | 0.00 | 0.41 | 0.41 | 56 | 1010.4 | |
| 20260904223015 | 79 | 0.0 | 0.9 | 0.00 | 0.41 | 0.41 | 48 | 1010.3 | |
| 20260904220037 | 80 | 0.0 | 1.7 | 0.00 | 0.41 | 0.41 | 45 | 1010.2 | |
| 20260904213015 | 80 | 0.0 | 1.7 | 0.00 | 0.41 | 0.41 | 46 | 1010.1 | |
| 20260904210015 | 81 | 0.0 | 2.6 | 0.00 | 0.41 | 0.41 | 44 | 1010.3 | |
| 20260904203017 | 81 | 23 | 0.9 | 2.6 | 0.00 | 0.41 | 0.41 | 44 | 1010.5 |
| 20260904200015 | 82 | 45 | 0.9 | 3.5 | 0.00 | 0.41 | 0.41 | 42 | 1010.6 |
| 20260904193015 | 84 | 45 | 0.9 | 3.5 | 0.00 | 0.41 | 0.41 | 41 | 1010.7 |
| 20260904190017 | 85 | 45 | 0.9 | 2.6 | 0.00 | 0.41 | 0.41 | 39 | 1010.8 |
| 20260904183017 | 84 | 23 | 1.7 | 5.2 | 0.00 | 0.41 | 0.41 | 41 | 1011.2 |